| time (UTC) | temp C | wind direction | speed KPH | gust KPH | rain 1hr cm | rain 24hr cm | rain mn cm | humidity % | barometer mb |
| 20260506130100 | 24 | 128 | 1.6 | 6.4 | 0.00 | 0.00 | 0.00 | 92 | 1010.8 |
| 20260506124559 | 24 | 126 | 0.0 | 9.7 | 0.00 | 0.00 | 0.00 | 93 | 1010.7 |
| 20260506123057 | 24 | 174 | 0.0 | 8.0 | 0.00 | 0.00 | 0.00 | 93 | 1010.6 |
| 20260506121607 | 24 | 147 | 1.6 | 6.4 | 0.00 | 0.00 | 0.00 | 93 | 1010.5 |
| 20260506120118 | 24 | 147 | 3.2 | 11.3 | 0.00 | 0.00 | 0.00 | 93 | 1010.2 |
| 20260506114554 | 24 | 157 | 1.6 | 8.0 | 0.00 | 0.00 | 0.00 | 93 | 1010.0 |
| 20260506113056 | 24 | 159 | 1.6 | 11.3 | 0.00 | 0.00 | 0.00 | 93 | 1009.8 |
| 20260506111552 | 24 | 165 | 0.0 | 8.0 | 0.00 | 0.00 | 0.00 | 93 | 1009.6 |
| 20260506110053 | 24 | 168 | 0.0 | 9.7 | 0.00 | 0.00 | 0.00 | 93 | 1009.6 |
| 20260506104550 | 24 | 174 | 1.6 | 8.0 | 0.00 | 0.00 | 0.00 | 93 | 1009.7 |
| 20260506103052 | 24 | 129 | 0.0 | 6.4 | 0.00 | 0.00 | 0.00 | 92 | 1009.8 |
| 20260506101550 | 24 | 157 | 3.2 | 9.7 | 0.00 | 0.00 | 0.00 | 92 | 1009.5 |
| 20260506100048 | 24 | 147 | 0.0 | 4.8 | 0.00 | 0.00 | 0.00 | 92 | 1009.4 |
| 20260506094549 | 24 | 147 | 0.0 | 4.8 | 0.00 | 0.00 | 0.00 | 92 | 1009.4 |
| 20260506093051 | 24 | 148 | 0.0 | 4.8 | 0.00 | 0.00 | 0.00 | 92 | 1009.6 |
| 20260506091545 | 24 | 148 | 1.6 | 8.0 | 0.00 | 0.00 | 0.00 | 92 | 1009.5 |
| 20260506090044 | 24 | 148 | 0.0 | 6.4 | 0.00 | 0.00 | 0.00 | 91 | 1009.6 |
| 20260506084543 | 24 | 144 | 1.6 | 8.0 | 0.00 | 0.00 | 0.00 | 91 | 1009.7 |
| 20260506083045 | 24 | 140 | 1.6 | 8.0 | 0.00 | 0.00 | 0.00 | 91 | 1009.8 |
| 20260506081541 | 24 | 163 | 1.6 | 8.0 | 0.00 | 0.00 | 0.00 | 91 | 1009.9 |
| 20260506073037 | 24 | 174 | 3.2 | 8.0 | 0.00 | 0.00 | 0.00 | 91 | 1010.4 |
| 20260506071547 | 24 | 163 | 4.8 | 11.3 | 0.00 | 0.00 | 0.00 | 90 | 1010.4 |
| 20260506061536 | 24 | 140 | 6.4 | 12.9 | 0.00 | 0.00 | 0.00 | 90 | 1010.3 |
| 20260506044536 | 25 | 163 | 4.8 | 19.3 | 0.00 | 0.00 | 0.00 | 89 | 1010.4 |
| 20260506043026 | 25 | 127 | 4.8 | 16.1 | 0.00 | 0.00 | 0.00 | 89 | 1010.3 |
| 20260506041526 | 25 | 126 | 8.0 | 17.7 | 0.00 | 0.00 | 0.00 | 89 | 1010.4 |
| 20260506040025 | 25 | 185 | 8.0 | 12.9 | 0.00 | 0.00 | 0.00 | 89 | 1010.3 |
| 20260506034525 | 25 | 151 | 6.4 | 16.1 | 0.00 | 0.00 | 0.00 | 89 | 1010.3 |
| 20260506033024 | 25 | 150 | 4.8 | 17.7 | 0.00 | 0.00 | 0.00 | 89 | 1010.3 |
| 20260506031525 | 25 | 162 | 4.8 | 12.9 | 0.00 | 0.00 | 0.00 | 89 | 1010.2 |
| 20260506030025 | 25 | 171 | 6.4 | 16.1 | 0.00 | 0.00 | 0.00 | 90 | 1010.2 |
| 20260506024531 | 25 | 163 | 4.8 | 12.9 | 0.00 | 0.00 | 0.00 | 90 | 1009.9 |
| 20260506023022 | 25 | 142 | 4.8 | 9.7 | 0.00 | 0.00 | 0.00 | 90 | 1009.8 |
| 20260506021521 | 25 | 171 | 4.8 | 14.5 | 0.00 | 0.00 | 0.00 | 90 | 1009.6 |
| 20260506020021 | 25 | 166 | 4.8 | 11.3 | 0.00 | 0.00 | 0.00 | 89 | 1009.4 |
| 20260506014520 | 25 | 153 | 6.4 | 16.1 | 0.00 | 0.00 | 0.00 | 89 | 1009.2 |
| 20260506013023 | 25 | 132 | 6.4 | 14.5 | 0.00 | 0.00 | 0.00 | 88 | 1009.1 |
| 20260506011520 | 25 | 163 | 6.4 | 14.5 | 0.00 | 0.00 | 0.00 | 88 | 1008.9 |
| 20260506010018 | 25 | 183 | 9.7 | 17.7 | 0.00 | 0.00 | 0.00 | 88 | 1008.6 |
| 20260506004517 | 25 | 178 | 6.4 | 24.1 | 0.00 | 0.00 | 0.00 | 88 | 1008.5 |
| 20260506003017 | 25 | 121 | 11.3 | 22.5 | 0.00 | 0.00 | 0.00 | 88 | 1008.5 |
| 20260506001516 | 25 | 180 | 11.3 | 22.5 | 0.00 | 0.00 | 0.00 | 88 | 1008.4 |
| 20260506000015 | 25 | 163 | 8.0 | 16.1 | 0.00 | 0.00 | 0.00 | 88 | 1008.6 |
| 20260505234532 | 25 | 167 | 9.7 | 17.7 | 0.00 | 0.00 | 0.00 | 88 | 1008.4 |
| 20260505233017 | 26 | 153 | 11.3 | 20.9 | 0.00 | 0.00 | 0.00 | 87 | 1008.5 |
| 20260505231515 | 26 | 161 | 9.7 | 16.1 | 0.00 | 0.00 | 0.00 | 86 | 1008.5 |
| 20260505230015 | 26 | 178 | 11.3 | 19.3 | 0.00 | 0.00 | 0.00 | 86 | 1008.6 |
| 20260505224518 | 26 | 151 | 9.7 | 17.7 | 0.00 | 0.00 | 0.00 | 86 | 1008.5 |
| 20260505223012 | 26 | 178 | 9.7 | 20.9 | 0.00 | 0.00 | 0.00 | 86 | 1008.7 |
| 20260505221509 | 26 | 178 | 9.7 | 19.3 | 0.00 | 0.00 | 0.00 | 87 | 1008.7 |
| 20260505220010 | 26 | 206 | 11.3 | 25.7 | 0.00 | 0.00 | 0.00 | 86 | 1008.9 |
| 20260505214508 | 26 | 175 | 11.3 | 24.1 | 0.00 | 0.00 | 0.00 | 86 | 1009.0 |
| 20260505213007 | 26 | 179 | 11.3 | 24.1 | 0.00 | 0.00 | 0.00 | 86 | 1009.0 |
| 20260505211504 | 26 | 180 | 11.3 | 27.4 | 0.00 | 0.00 | 0.00 | 86 | 1009.1 |
| 20260505210004 | 26 | 155 | 14.5 | 32.2 | 0.00 | 0.00 | 0.00 | 86 | 1009.2 |
| 20260505204502 | 26 | 233 | 12.9 | 24.1 | 0.00 | 0.00 | 0.00 | 85 | 1009.4 |
| 20260505203105 | 26 | 178 | 12.9 | 22.5 | 0.00 | 0.00 | 0.00 | 86 | 1009.6 |
| 20260505201608 | 26 | 190 | 11.3 | 22.5 | 0.00 | 0.00 | 0.00 | 86 | 1009.9 |
| 20260505200105 | 26 | 169 | 8.0 | 19.3 | 0.00 | 0.00 | 0.00 | 86 | 1009.9 |
| 20260505194606 | 26 | 194 | 9.7 | 20.9 | 0.00 | 0.00 | 0.00 | 85 | 1010.1 |
| 20260505193057 | 26 | 194 | 12.9 | 25.7 | 0.00 | 0.00 | 0.00 | 85 | 1010.1 |
| 20260505191556 | 26 | 191 | 9.7 | 20.9 | 0.00 | 0.00 | 0.00 | 85 | 1010.2 |
| 20260505190059 | 26 | 186 | 11.3 | 24.1 | 0.00 | 0.00 | 0.00 | 86 | 1010.2 |
| 20260505184551 | 26 | 185 | 8.0 | 16.1 | 0.00 | 0.00 | 0.00 | 87 | 1010.4 |
| 20260505183051 | 25 | 180 | 6.4 | 22.5 | 0.00 | 0.00 | 0.00 | 87 | 1010.5 |
| 20260505181548 | 25 | 208 | 11.3 | 22.5 | 0.00 | 0.00 | 0.00 | 87 | 1010.6 |
| 20260505180048 | 25 | 161 | 8.0 | 16.1 | 0.00 | 0.00 | 0.00 | 87 | 1010.6 |
| 20260505174548 | 25 | 214 | 8.0 | 16.1 | 0.00 | 0.00 | 0.00 | 87 | 1010.6 |
| 20260505173049 | 25 | 187 | 8.0 | 19.3 | 0.00 | 0.00 | 0.00 | 87 | 1010.8 |
| 20260505171544 | 25 | 191 | 8.0 | 16.1 | 0.00 | 0.00 | 0.00 | 88 | 1010.9 |
| 20260505170045 | 25 | 148 | 8.0 | 17.7 | 0.00 | 0.00 | 0.00 | 87 | 1011.0 |
| 20260505164543 | 25 | 174 | 8.0 | 16.1 | 0.00 | 0.00 | 0.00 | 87 | 1010.8 |
| 20260505163043 | 25 | 184 | 9.7 | 24.1 | 0.00 | 0.00 | 0.00 | 87 | 1010.7 |
| 20260505161543 | 25 | 138 | 9.7 | 24.1 | 0.00 | 0.00 | 0.00 | 87 | 1010.7 |
| 20260505153045 | 25 | 186 | 8.0 | 24.1 | 0.00 | 0.00 | 0.00 | 86 | 1010.6 |
| 20260505151541 | 25 | 203 | 6.4 | 14.5 | 0.00 | 0.00 | 0.00 | 87 | 1010.4 |